Flag for U.S.A. Weather past 2 weeks in Concord, California, U.S.A.

Now
64 °F

Sunny.


Feels Like: 64 °F
Forecast: 45 / 68 °F
Wind: 3 mph from Northwest

Location: Buchanan Field

Current Time: Jan 30, 2015 at 12:30:12 PM

Latest Report: Jan 30, 2015 at 11:53 AM


Visibility: 10 mi

Pressure: 29.94 "Hg

Humidity: 61%

Dew point: 50 °F

Location of ConcordLocation

Historic Weather in Concord — Graph

°F

Concord temperature yesterday

Maximum temperature yesterday: 68 °F (at 2:53 PM)
Minimum temperature yesterday: 44 °F (at 4:53 AM)
Average temperature yesterday: 54 °F

Past Weeks' High & Low Weather Summary

 TemperatureHumidityPressure
High68 °F (Jan 28, 2:53 PM)100% (Jan 16, 7:53 AM)30.39 "Hg (Jan 16, 7:53 AM)
Low38 °F (Jan 23, 6:53 AM)42% (Jan 26, 2:53 PM)29.93 "Hg (Jan 26, 2:53 PM)
Average51 °F80%30.16 "Hg
* Reported Jan 15 10:53 AM — Jan 30 10:53 AM, Concord, Weather by CustomWeather, © 2014

Note: Actual official high and low records may vary slightly from our data, if they occured in-between our weather recording intervals... More about our weather records

Advertising

Concord weather history for previous 24 hours

 ConditionsComfort  
Time TempWeatherWind HumidityBarometerVisibility
10:53 AM
Jan 30
61 °FSunny.No wind58%29.97 "Hg10 mi
9:53 AM56 °FPassing clouds.3 mph67%29.98 "Hg10 mi
8:53 AM51 °FSunny.6 mph77%29.98 "Hg9 mi
7:53 AM44 °FSunny.3 mph85%29.98 "Hg9 mi
6:53 AM43 °FClear.5 mph89%29.98 "Hg9 mi
5:53 AM44 °FClear.No wind89%29.98 "Hg10 mi
4:53 AM45 °FClear.No wind86%29.98 "Hg10 mi
3:53 AM44 °FClear.3 mph89%29.99 "Hg10 mi
2:53 AM45 °FClear.No wind86%30.00 "Hg10 mi
1:53 AM47 °FClear.No wind83%30.01 "Hg10 mi
12:53 AM48 °FClear.No wind83%30.01 "Hg10 mi
11:53 PM
Jan 29
51 °FClear.5 mph74%30.02 "Hg10 mi
10:53 PM51 °FClear.3 mph77%30.02 "Hg10 mi
9:53 PM52 °FClear.3 mph75%30.02 "Hg10 mi
8:53 PM52 °FClear.No wind75%30.03 "Hg10 mi
7:53 PM56 °FClear.No wind70%30.03 "Hg10 mi
6:53 PM57 °FClear.No wind69%30.03 "Hg10 mi
5:53 PM60 °FClear.3 mph65%30.02 "Hg10 mi
4:53 PM66 °FSunny.5 mph49%30.02 "Hg10 mi
3:53 PM68 °FSunny.6 mph47%30.03 "Hg10 mi
2:53 PM68 °FSunny.7 mph49%30.03 "Hg10 mi
1:53 PM66 °FSunny.7 mph52%30.04 "Hg10 mi
12:53 PM66 °FSunny.7 mph52%30.07 "Hg10 mi
Weather by CustomWeather, © 2014

See weather overviewHow to use our weather pages